Regional Weather Roundup
Issued by NWS New Orleans/Baton Rouge, LA

Home | Current Version | Previous Version | Text Only | Print | Product List | Glossary Off
Versions: 1 2 3 4 5 6 7 8 9 10 11 12 13 14 15 16 17 18 19 20 21 22 23 24 25 26 27 28 29 30 31 32 33 34 35 36 37 38 39 40 41 42 43 44 45 46 47 48 49 50

442
ASUS44 KLIX 261405
RWRLIX
NEW ORLEANS REGIONAL WEATHER ROUNDUP
NATIONAL WEATHER SERVICE NEW ORLEANS LA
800 AM CST MON JAN 26 2015

NOTE: "FAIR" INDICATES FEW OR NO CLOUDS BELOW 12,000 FEET WITH NO
      SIGNIFICANT WEATHER AND/OR OBSTRUCTIONS TO VISIBILITY.
      SKY/WX - SKY CONDITION AND SIGNIFICANT WEATHER.
      TMP - AIR TEMPERATURE.     DP    - DEWPOINT TEMPERATURE.
      RH  - RELATIVE HUMIDITY.   PRES  - PRESSURE.
      HI  - HEAT INDEX.          WCI   - WIND CHILL INDEX.

*  THESE STATIONS ARE NOT NWS OR FAA STATIONS AND ARE NOT UNDER
   NWS QUALITY CONTROL.

LAZ038-040-048-061>063-065>067-069-261500-
SOUTHEAST LOUISIANA

CITY           SKY/WX    TMP DP  RH WIND       PRES   REMARKS
N.O. AUDUBON     N/A     47  38  72 MISG        N/A
N.O. INTL ARPT MOSUNNY   50  35  56 NW14G21   30.12R
N.O. LAKEFRONT SUNNY     52  37  56 NW17      30.12R
N.O. DOWNTOWN*   N/A     50  32  50 NW8       30.12R
SLIDELL        SUNNY     45  34  65 NW7       30.09R
BATON ROUGE    SUNNY     47  33  58 NW7       30.15R
BOOTHVILLE     SUNNY     50  37  61 N14       30.11R
BELLE CHASSE   MOSUNNY   51  34  52 CALM      30.11R
BOGALUSA*        N/A     46  35  67 NW5       30.11R
GALLIANO*      SUNNY     48  38  66 MISG      30.13R
NEW ROADS*       N/A     46  34  64 NW10      30.16R
GONZALES*        N/A     48  34  58 NW6       30.15R
HAMMOND*       SUNNY     46  34  61 NW7       30.13R
HOUMA*         SUNNY     48  36  61 NW3       30.14
PORT FOURCHON* SUNNY     52  37  58 NW8       30.16R

$$

MSZ070-080>082-261500-
SOUTHERN MISSISSIPPI

CITY           SKY/WX    TMP DP  RH WIND       PRES   REMARKS
MCCOMB         SUNNY     44  33  65 NW10      30.11R
GULFPORT       SUNNY     45  35  68 NW9       30.07R
BILOXI         SUNNY     46  37  69 NW9       30.07R
PASCAGOULA     SUNNY     47  35  63 VRB5      30.06R
STENNIS ARPT*  SUNNY     45  32  61 NW5       30.08R

$$

COASTAL OBSERVATIONS
LAKE AND NEARSHORE STATIONS

STATION/POSITION TIME  TEMP    WIND        PRES    WAVE
                       AIR SEA DIR/SP/G            HT/PER
                 (UTC) (F)     (DEG/KT/KT) (MB)    (FT/S)
PASCAGOULA       1318   45     310/  6/  9 1016.9
WAVELAND YACHT   1318   46     310/  7/  9 1017.2
GRAND ISLE       1318   52 57  320/ 11/ 14 1019.5
SOUTHWEST PASS   1318   54 46  350/ 19/ 22 1019.4
NEW CANAL        1318   50 51  340/  8/ 13 1019.7
SHELL BEACH      1318   50 52  340/ 14/ 15 1018.9

OFFSHORE STATIONS

STATION/POSITION TIME  TEMP    WIND        PRES    WAVE
                       AIR SEA DIR/SP/G            HT/PER
                 (UTC) (F)     (DEG/KT/KT) (MB)    (FT/S)
64 S DAUPHIN ISL 1337   54 70  320/ 23/ 29 1018.1    8/ 6

$$




USA.gov is the U.S. government's official web portal to all federal, state and local government web resources and services.